Location: Branche des Alpilles
(43.6087°N, 4.6976°E)
Time: 12:31:49
(UTC+00:00)

USA 215 - Pass Details

Date: 30 November 2020
Orbit: 1098 x 1110 km, 123.0° (Epoch: 22 January)

Event Time Altitude Azimuth Distance (km) Brightness Sun altitude
Exits shadow 17:43:49 25° 63° (ENE) 2,091 4.1 -17.2°
Maximum altitude 17:47:48 59° 134° (SE) 1,267 3.4 -17.9°
Drops below altitude 10° 17:54:15 10° 213° (SSW) 2,965 6.1 -19.1°
Sets 17:56:47 0° 217° (SW) 3,920 6.9 -19.5°
